Vertical_Velocity
0 0 6 -7 -2 -3 -1 -2 -1 -0 -1 -0 -1 -0 -3 0 -5 -9 1 2 -3 -2 -3 -1 -0 2 1 -1 1 -4 0 1 -1 -2 -2 1 1 -1 -0 -1 -1 -2 -1 -3 -3 0 -1 0 -0
6 -8 -2 5 2 0 -5 -2 -0 -3 -5 6 1 -1 1 -0 -1 -1 -0 1 -2 -4 -2 1 -1 1 2 -0 -1 -1 1 2 -1 -0 -1 2 -1 -0 -1 -1 -2 -1 -1 -2 0 -1 2 -3 1
7 5 0 -2 -1 -2 -4 -2 -3 -1 -1 -3 0 -1 -0 -1 -0 1 0 -3 -3 -3 1 2 -1 -0 -1 -2 -1 -1 -3 1 1 -2 -0 0 -1 -2 -1 -2 -1 -1 -1 0 -1 -2 -1 -2 -1
0 -2 1 -1 -3 -11 -5 -2 -1 2 6 3 0 0 1 -1 2 -4 -3 -4 1 1 3 1 0 -3 0 -2 -2 1 -2 -2 -3 -2 -1 1 -1 -1 -1 -1 1 -1 -2 -3 -1 -1 -2 -2 -2
2 2 -0 1 -3 -6 -0 -3 -2 0 -1 0 1 -1 -1 3 1 -0 0 -0 -1 -0 0 1 2 -1 -1 -2 -0 -1 1 -4 -2 -2 0 -1 -0 -0 -1 -1 -2 -3 -2 -0 -5 -2 -1 -2 -3
1 0 1 -0 -3 -2 -1 0 -3 0 1 4 -1 -0 -3 2 -2 1 -2 -1 0 -1 2 -0 0 -1 -0 -1 0 0 -0 -3 -0 0 -0 -1 -2 -1 -1 -2 -0 -1 -1 1 -3 -1 -1 -4 -2
-3 -1 -3 -1 -2 -1 -2 0 -1 -2 0 -1 -0 -3 -0 1 2 -2 -1 4 0 2 0 -0 -2 -3 2 -2 -1 -0 -1 -1 -0 0 -2 0 -0 -2 -3 0 1 0 -3 -1 -2 1 -2 -2 -0
2 -3 1 -1 -2 -10 -3 2 -2 -5 -5 2 1 -4 -3 -9 -1 3 3 4 2 0 2 -0 -1 1 1 -1 -2 -1 -3 0 -1 0 -0 -0 -3 -2 -0 -0 -0 -1 0 -3 -1 -0 -1 -1 -1
4 -2 -0 -5 -1 -9 0 1 2 1 0 5 -2 -1 4 0 0 -0 3 4 2 0 2 0 -1 2 2 -4 -1 -0 -1 -0 1 -0 -2 -1 -1 1 -2 -1 0 1 -1 2 1 -1 0 -2 -2
-2 0 -6 -3 -2 -2 -1 -1 -3 1 1 2 2 -1 -2 1 -1 -5 -5 -3 -2 -2 0 -2 2 2 -1 -4 -1 -2 -0 1 1 -2 1 -0 -0 1 -1 -0 1 -1 1 0 -0 -2 -1 -2 0
-0 -4 -2 -2 -2 2 -0 1 1 -1 0 -6 -19 -4 0 -1 2 3 2 1 -3 4 2 -4 3 1 -2 -2 -1 -1 1 2 -1 -1 -1 0 1 0 0 1 -2 -0 -1 -1 0 2 -2 0 -0
1 -1 -1 -0 1 -0 -1 1 0 -0 -15 -4 -1 1 -1 0 -6 -4 -2 -7 -5 -3 1 1 1 1 -0 -1 -2 -1 1 -0 -1 0 -1 1 1 1 -1 -2 -1 -1 -1 -1 -0 -1 -2 -1 0
3 -2 0 -2 2 -1 4 -2 -6 -5 -3 2 4 4 -1 3 5 9 11 8 1 -1 -0 -0 1 1 -2 -2 -2 1 1 -0 -0 0 -0 1 -1 -1 -1 -1 -0 -0 -2 -2 -3 -3 -2 -0 -1
-2 0 -4 -1 -3 1 1 -2 6 -10 3 2 4 -1 0 -2 -6 6 -3 -2 -2 2 -0 -0 1 0 -1 -1 0 1 0 1 1 -1 2 -1 -0 -0 -1 1 -1 -3 -4 -4 -3 -2 -2 -3 -4
-2 2 -0 0 -1 -2 1 -2 -3 -4 -2 4 -1 3 3 -2 3 -12 -1 -7 -1 1 2 -3 1 -1 -1 0 2 -1 1 1 0 0 1 -1 -2 -1 -2 -3 -2 -4 -4 -3 -4 -1 -1 1 0
0 1 3 -5 1 -4 -3 -19 -3 1 5 0 1 1 0 -4 -7 2 1 5 4 3 -4 1 2 -1 1 -1 0 0 2 2 -0 1 1 -2 -0 -1 -1 -1 -2 -3 -2 -4 -3 -3 -0 -1 -3
0 -2 1 -4 -1 -1 -0 -8 -5 6 4 0 2 -1 -0 6 4 1 1 2 -0 -1 -1 -0 -1 -1 -0 0 2 3 2 1 2 1 -1 0 -1 -2 -1 -2 -3 -3 -5 -3 -1 -0 -2 -3 -2
-5 1 1 -3 -5 3 3 -6 -2 1 2 -2 1 4 1 -1 -16 -1 -2 1 1 1 5 6 2 2 1 2 3 3 3 3 1 -0 1 -0 -1 -1 -2 -1 -2 -2 -1 -1 -1 -1 2 -4 -6
-1 2 -1 -2 -1 -3 -4 -2 -5 -3 1 0 0 -0 -1 -9 12 5 5 4 5 5 2 -1 -1 -1 -1 -2 -4 -0 -3 -1 1 0 0 1 2 -0 -1 -1 -2 -2 -1 -1 -2 -2 -4 0 -4
2 0 -3 -3 0 -0 -1 -8 -4 -0 -3 -4 -2 -1 -4 7 -1 1 3 2 -0 -0 1 1 -0 1 -2 -0 -3 1 2 3 7 3 1 0 0 -1 -0 -1 -2 -1 -0 -1 -1 -4 -5 -2 -2
-1 -2 -2 -6 1 0 -0 -3 0 -2 2 3 -1 -4 2 -4 -1 1 -0 -3 1 -5 -3 -3 -3 1 -1 -2 2 6 5 7 -0 -2 -1 -0 -1 -1 -1 -1 -2 -2 -1 -2 -2 -1 -3 -5 -1
8 -3 1 1 -1 -4 -4 -13 -0 -1 -1 1 -3 3 -4 -4 4 4 0 -1 -5 -3 2 2 0 -1 -2 1 1 1 -2 -6 -2 2 1 0 0 -1 -1 -1 -1 -1 -2 -2 -1 -2 -2 -2 -2
-20 -1 -3 -1 1 0 1 1 -15 2 -0 -2 -3 -4 -1 -4 -3 -6 -9 -3 2 1 -6 0 5 4 1 0 1 -1 -0 4 5 1 1 -1 -1 0 -1 -1 -1 -1 -1 -0 -1 -0 -0 -1 -1
-4 -3 -2 -1 -2 4 -8 -1 -3 -4 -6 -2 -2 -3 -2 -0 -2 4 8 8 3 7 5 2 0 2 2 0 1 -0 1 -0 -1 -0 -0 -0 0 -1 -1 -1 -1 -1 -0 0 0 -0 -1 -2 -1
3 -0 -2 -3 -1 -9 -1 8 -28 -2 -2 -5 -5 -4 -1 2 6 5 -5 -3 0 -3 -2 -1 1 -4 1 -1 1 -1 1 2 2 1 0 -0 -0 0 -0 -0 -1 -2 -0 0 -1 -1 -2 -1 -2
-7 -10 -10 -7 -3 -5 -0 -6 -21 -7 -4 -3 -1 -1 -1 2 3 -1 -1 -0 -2 -1 0 2 -0 -1 -1 1 1 1 1 0 1 -0 0 0 0 0 -0 -1 -1 -1 1 0 -0 -0 -1 -1 -1
-5 4 -30 -5 -0 -3 -5 -7 -7 0 -1 0 -0 1 -2 1 0 0 4 1 -0 -1 -3 -4 -3 2 1 -0 1 1 3 -1 -0 2 1 -1 0 0 -1 0 -0 1 0 -1 -1 -2 -1 -0 -1
-17 -24 -4 0 -1 -0 -2 -1 -7 -1 -3 -1 0 -0 -0 3 3 1 -0 -2 5 8 9 7 6 2 3 6 5 3 1 2 2 1 0 -0 1 -0 -1 -0 0 1 -0 -1 -1 -1 -1 -3 -1
3 5 1 -9 -5 -4 -2 -10 -7 -5 -4 -2 -2 -1 -1 -0 -0 2 5 6 6 5 2 1 3 -1 -1 2 0 1 -1 -0 0 0 -1 -0 1 -1 -0 -1 -1 -1 -1 -1 -1 -1 -2 -2 -3
-3 -3 -5 -2 -7 -1 -3 -15 -0 -0 -0 1 -1 -2 0 3 1 2 2 0 0 -0 -0 1 0 -1 1 0 1 1 2 0 0 0 1 -1 1 -0 -1 0 1 -1 -1 -1 -2 -2 -0 -2 -1
Height
1510 1511 1511 1516 1528 1527 1524 1511 1508 1507 1502 1497 1500 1501 1498 1502 1502 1515 1507 1511 1514 1520 1524 1526 1528 1528 1528 1529 1529 1531 1532 1532 1532 1533 1534 1535 1534 1534 1534 1533 1533 1533 1532 1532 1532 1532 1531 1530 1529
1507 1509 1512 1512 1524 1532 1524 1506 1504 1499 1494 1495 1499 1501 1500 1502 1500 1504 1507 1510 1515 1520 1523 1524 1525 1526 1526 1528 1528 1530 1532 1532 1531 1535 1535 1535 1534 1534 1533 1533 1532 1531 1531 1531 1530 1530 1528 1528 1527
1505 1507 1508 1510 1515 1517 1517 1498 1491 1492 1495 1496 1499 1498 1499 1498 1500 1502 1504 1509 1514 1518 1521 1522 1523 1524 1525 1528 1528 1529 1532 1532 1532 1534 1534 1534 1534 1533 1532 1532 1531 1530 1530 1529 1528 1528 1527 1526 1526
1501 1505 1507 1509 1506 1498 1496 1491 1489 1491 1497 1497 1497 1499 1499 1497 1497 1500 1503 1508 1514 1516 1518 1520 1520 1523 1524 1527 1529 1529 1530 1531 1532 1534 1534 1533 1533 1532 1532 1531 1530 1529 1529 1528 1527 1526 1525 1525 1525
1500 1502 1509 1508 1499 1485 1487 1482 1483 1487 1490 1491 1492 1495 1497 1497 1500 1502 1503 1507 1513 1514 1517 1517 1519 1522 1523 1526 1528 1529 1530 1530 1533 1534 1533 1533 1532 1532 1532 1532 1531 1529 1528 1527 1526 1525 1524 1524 1523
1496 1499 1508 1506 1490 1482 1478 1476 1481 1485 1484 1490 1491 1493 1496 1498 1500 1501 1503 1506 1511 1513 1514 1515 1519 1521 1522 1525 1527 1528 1530 1531 1533 1533 1533 1533 1533 1532 1532 1532 1530 1529 1528 1526 1525 1524 1522 1522 1521
1493 1497 1498 1495 1488 1483 1476 1478 1477 1477 1481 1485 1486 1492 1493 1495 1499 1499 1503 1506 1509 1511 1513 1514 1517 1519 1520 1523 1526 1528 1529 1531 1533 1533 1533 1533 1532 1531 1530 1529 1528 1527 1525 1524 1523 1521 1520 1519 1518
1489 1489 1490 1487 1484 1481 1472 1474 1471 1474 1479 1481 1482 1485 1490 1490 1494 1499 1503 1505 1506 1509 1511 1512 1514 1516 1518 1521 1525 1527 1528 1531 1532 1533 1533 1531 1530 1529 1528 1527 1526 1525 1523 1523 1521 1519 1518 1517 1516
1486 1491 1491 1480 1482 1472 1470 1472 1471 1473 1474 1476 1477 1477 1477 1484 1489 1496 1499 1501 1503 1506 1508 1510 1512 1515 1517 1519 1523 1525 1528 1531 1531 1532 1531 1529 1528 1528 1527 1526 1524 1524 1522 1521 1519 1517 1515 1514 1513
1481 1487 1472 1464 1468 1471 1468 1467 1467 1470 1470 1473 1472 1473 1476 1480 1483 1486 1489 1491 1497 1500 1502 1506 1509 1511 1514 1518 1522 1524 1528 1529 1530 1530 1529 1529 1528 1526 1526 1525 1524 1523 1522 1520 1518 1516 1514 1513 1511
1472 1466 1462 1460 1462 1463 1464 1464 1465 1465 1469 1462 1465 1469 1472 1475 1479 1481 1484 1486 1490 1495 1497 1502 1506 1509 1512 1516 1520 1523 1526 1527 1527 1528 1527 1527 1526 1526 1525 1524 1523 1522 1520 1518 1516 1514 1512 1510 1508
1472 1459 1460 1455 1458 1460 1460 1460 1460 1459 1455 1459 1461 1461 1465 1468 1471 1474 1476 1481 1486 1490 1494 1498 1503 1506 1510 1514 1518 1522 1524 1524 1525 1526 1526 1525 1525 1525 1524 1523 1521 1519 1518 1516 1514 1512 1510 1508 1505
1462 1456 1456 1457 1458 1458 1458 1456 1456 1453 1456 1457 1457 1459 1459 1461 1464 1468 1473 1478 1482 1486 1490 1494 1499 1503 1507 1511 1515 1518 1520 1522 1523 1524 1523 1523 1523 1523 1522 1521 1519 1518 1516 1514 1512 1509 1507 1504 1502
1452 1452 1452 1453 1453 1455 1455 1453 1456 1445 1451 1452 1451 1451 1454 1455 1457 1464 1468 1471 1476 1481 1485 1490 1494 1499 1504 1508 1512 1515 1517 1519 1520 1521 1521 1521 1522 1521 1520 1519 1517 1515 1513 1511 1508 1506 1503 1500 1498
1446 1452 1449 1446 1448 1450 1452 1451 1445 1436 1444 1444 1444 1444 1446 1449 1453 1454 1458 1463 1469 1474 1480 1485 1490 1495 1500 1504 1508 1511 1514 1516 1517 1518 1519 1519 1519 1519 1518 1516 1514 1512 1510 1507 1505 1503 1500 1496 1494
1446 1450 1455 1436 1442 1443 1447 1436 1430 1429 1434 1435 1436 1439 1441 1443 1444 1450 1455 1460 1464 1469 1474 1480 1486 1491 1496 1501 1505 1508 1511 1513 1514 1516 1516 1517 1517 1516 1515 1514 1511 1509 1507 1504 1502 1499 1495 1492 1488
1449 1451 1451 1439 1432 1436 1440 1431 1425 1425 1426 1428 1430 1433 1435 1438 1442 1445 1449 1454 1458 1462 1469 1474 1479 1485 1491 1497 1501 1504 1507 1509 1511 1512 1513 1514 1514 1513 1512 1511 1508 1506 1503 1501 1497 1494 1490 1486 1482
1439 1446 1439 1436 1428 1432 1435 1424 1424 1423 1422 1421 1423 1425 1428 1430 1430 1435 1442 1447 1452 1458 1464 1470 1475 1481 1487 1492 1497 1501 1503 1505 1507 1509 1510 1511 1511 1510 1509 1507 1505 1502 1500 1497 1494 1490 1486 1482 1478
1417 1427 1427 1421 1421 1427 1426 1414 1414 1415 1417 1416 1417 1419 1421 1419 1423 1431 1436 1440 1446 1452 1457 1463 1469 1475 1480 1485 1488 1493 1495 1499 1502 1504 1506 1507 1508 1507 1506 1504 1502 1499 1497 1493 1489 1485 1482 1479 1473
1418 1422 1422 1419 1415 1420 1419 1411 1406 1410 1408 1406 1408 1410 1411 1414 1419 1422 1427 1432 1436 1442 1449 1456 1463 1469 1474 1478 1484 1488 1492 1496 1499 1501 1503 1504 1504 1504 1503 1501 1499 1496 1494 1490 1486 1482 1479 1476 1471
1412 1412 1413 1415 1414 1418 1418 1415 1408 1401 1399 1397 1397 1397 1400 1400 1404 1410 1417 1421 1428 1433 1439 1447 1455 1462 1467 1473 1480 1485 1488 1492 1493 1495 1498 1500 1501 1500 1499 1497 1494 1492 1489 1486 1483 1480 1476 1473 1471
1409 1405 1410 1418 1423 1428 1416 1405 1392 1390 1391 1388 1384 1385 1384 1388 1395 1400 1405 1411 1416 1423 1433 1441 1449 1455 1461 1467 1473 1476 1479 1482 1487 1492 1495 1496 1496 1496 1495 1493 1490 1488 1485 1482 1480 1477 1474 1471 1469
1393 1400 1407 1416 1422 1417 1416 1426 1395 1385 1380 1379 1375 1371 1371 1376 1381 1386 1391 1398 1408 1416 1424 1434 1442 1449 1455 1461 1466 1471 1476 1481 1485 1488 1490 1492 1493 1493 1491 1489 1487 1484 1481 1478 1476 1474 1472 1469 1467
1385 1396 1408 1417 1422 1428 1403 1413 1381 1379 1373 1371 1364 1361 1361 1365 1371 1376 1384 1393 1400 1409 1418 1426 1434 1442 1449 1456 1461 1466 1472 1477 1480 1484 1486 1488 1489 1489 1487 1485 1483 1480 1478 1475 1473 1471 1468 1466 1464
1384 1397 1426 1429 1431 1401 1396 1411 1358 1366 1360 1357 1353 1351 1353 1356 1360 1367 1375 1382 1390 1397 1407 1417 1427 1434 1443 1450 1456 1462 1468 1472 1477 1480 1483 1484 1485 1484 1483 1480 1478 1476 1474 1471 1469 1467 1465 1462 1460
1372 1377 1404 1406 1413 1403 1403 1389 1364 1351 1347 1345 1346 1346 1347 1348 1352 1357 1364 1371 1379 1388 1398 1408 1418 1428 1437 1444 1451 1458 1463 1468 1472 1476 1478 1479 1480 1480 1478 1476 1473 1471 1469 1467 1465 1463 1460 1458 1456
1372 1375 1355 1388 1395 1415 1392 1375 1357 1346 1346 1342 1340 1342 1343 1344 1347 1352 1358 1364 1371 1381 1389 1400 1411 1422 1431 1439 1446 1453 1458 1463 1468 1471 1473 1475 1475 1474 1473 1471 1469 1467 1465 1463 1461 1458 1456 1454 1451
1344 1346 1373 1386 1389 1379 1380 1375 1361 1344 1339 1337 1339 1337 1339 1343 1347 1352 1357 1362 1371 1378 1388 1397 1407 1415 1425 1433 1441 1448 1455 1460 1464 1467 1469 1470 1470 1469 1468 1467 1465 1463 1461 1458 1456 1454 1451 1449 1447
1347 1349 1355 1357 1375 1370 1383 1365 1343 1335 1331 1332 1330 1334 1337 1340 1345 1350 1355 1360 1369 1378 1386 1394 1403 1412 1421 1430 1438 1445 1451 1456 1460 1463 1465 1466 1466 1465 1464 1462 1460 1459 1457 1455 1452 1449 1446 1444 1441
1330 1334 1336 1349 1364 1373 1378 1351 1334 1337 1336 1334 1332 1333 1337 1341 1344 1349 1354 1360 1367 1374 1382 1390 1399 1409 1418 1427 1435 1441 1447 1451 1455 1458 1460 1461 1461 1460 1459 1457 1456 1454 1452 1450 1448 1445 1442 1439 1437